Regional Weather Roundup
Issued by NWS

Home | Current Version | Previous Version | Graphics & Text | Print | Product List | Glossary On
Versions: 1 2 3 4 5 6 7 8 9 10 11 12 13 14 15 16 17 18 19 20 21 22 23 24 25 26 27 28 29 30 31 32 33 34 35 36 37 38 39 40 41 42 43 44 45 46 47 48 49 50
000
ASUS43 KIND 200709
RWRIN

WEATHER ROUNDUP FOR INDIANA
NATIONAL WEATHER SERVICE INDIANAPOLIS IN
300 AM EDT SUN MAY 20 2018

NOTE: "FAIR" INDICATES FEW OR NO CLOUDS BELOW 12,000 FEET WITH NO
SIGNIFICANT WEATHER AND/OR OBSTRUCTIONS TO VISIBILITY.

* - STATION DOES NOT REPORT WEATHER SUCH AS PRECIPITATION OR FOG.

+ - STATION NOT QUALITY CONTROLLED BY THE NATIONAL WEATHER SERVICE.
    USE DATA WITH CAUTION...ESPECIALLY DEWPOINT AND RELATIVE
    HUMIDITY OBSERVATIONS.

INZ001>003-010>013-019-020-200800-
NORTHWEST INDIANA

CITY           SKY/WX    TMP DP  RH WIND       PRES   REMARKS
GARY /AIRPORT/ FOG       52  52  99 NE10      30.06S VSB 3/4
KNOX *+        FAIR      55  55 100 CALM      30.03R
LA PORTE +     MOCLDY    56  54  93 N9        30.04R
MICHIGAN CITY+ CLOUDY    52  52 100 N8        30.05R FOG
MONTICELLO +   FAIR      61  59  95 CALM      30.02R FOG
RENSSELAER +   FAIR      61  55  82 NE5       30.03R HAZE
VALPARAISO     FAIR      60  56  86 N7        30.05R

$$

LMZ046-743>745-200800-
SOUTHERN LAKE MICHIGAN

STATION/POSITION TIME  TEMP    WIND        PRES    WAVE
                       AIR SEA DIR/SP/G            HT
                 (UTC) (F)     (DEG/KT/KT) (MB)    (FT)
BURNS HARBOR     0640   50      30/ 14/ 17 1018.3R
MICHIGAN CITY    0640   50      10/ 23/ 24   N/A
5NW MICH CITY    0700   49 53   40/ 14/ 16   N/A     2

$$

INZ004-005-014>016-021>024-200800-
NORTH CENTRAL INDIANA

CITY           SKY/WX    TMP DP  RH WIND       PRES   REMARKS
GOSHEN         FAIR      57  55  93 N3        30.01R
LOGANSPORT +   FAIR      59  57  94 CALM      30.03S FOG
PERU/GRISSOM   FAIR      59  59 100 CALM      30.01R FOG
ROCHESTER +    FAIR      59  57  94 CALM      30.03R FOG
SOUTH BEND     MOCLDY    54  53  97 N8        30.04R
WARSAW +       FAIR      55  55 100 CALM      30.02R

$$

INZ006>009-017-018-025>027-200800-
NORTHEAST INDIANA

CITY           SKY/WX    TMP DP  RH WIND       PRES   REMARKS
ANGOLA *+      CLOUDY    57  55  94 N8        30.01R
AUBURN +       CLOUDY    57  55  94 NW7       30.02R
FORT WAYNE     MOCLDY    59  58  96 NW5       30.02R
HUNTINGTON +   FAIR      58  56  95 CALM      30.02R
KENDALLVILLE + CLOUDY    57  53  85 N10       30.02R

$$

INZ028-029-035-036-043>045-051>053-200800-
WEST CENTRAL INDIANA

CITY           SKY/WX    TMP DP  RH WIND       PRES   REMARKS
CRAWFORDSVL +  FAIR      62  62 100 NE5       30.00F FOG
GREENCASTLE +  FAIR      66  63  88 CALM      30.01F
LAFAYETTE      MOCLDY    63  62  97 NE7       30.01R FOG
TERRE HAUTE    FAIR      64  63  96 NE5       29.98F

$$

INZ030>032-037>040-046>048-054>057-064-065-200800-
CENTRAL INDIANA

CITY           SKY/WX    TMP DP  RH WIND       PRES   REMARKS
ANDERSON       FAIR      63  61  92 N5        30.02S FOG
FISHERS *+     FAIR     N/A N/A N/A CALM      30.03R
FRANKFORT +    CLOUDY    65  63  92 NE6       30.03S FOG
GREENWOOD *+   MOCLDY    66  64  96 W5        30.03R
INDIANAPOLIS   MOCLDY    67  65  93 SW5       30.01R
-EAGLE CREEK   MOCLDY    67  64  90 CALM      30.01R
KOKOMO +       FAIR      60  59  96 NE5       30.03R FOG
MARION +       FAIR      60  58  94 CALM      30.03S FOG
MT COMFORT *+  FAIR      63  63 100 CALM      30.02R
SHELBYVILLE    FAIR      67  65  93 SW7       30.01R FOG
ZIONSVILLE +   FAIR      63  62  96 CALM      30.03R

$$

INZ033-034-041-042-049-050-058-059-200800-
EAST CENTRAL INDIANA

CITY           SKY/WX    TMP DP  RH WIND       PRES   REMARKS
MUNCIE         FAIR      63  61  93 N5        30.02R FOG
RICHMOND +     FOG       63  63 100 W5        30.03R VSB 1/4

$$

INZ060-061-067>069-081>083-085>088-200800-
SOUTHWEST INDIANA

CITY           SKY/WX    TMP DP  RH WIND       PRES   REMARKS
EVANSVILLE     FAIR      69  63  81 SW5       30.01F
HUNTINGBURG +  FAIR      69  64  84 S5        30.02F
WASHINGTON +   FAIR      70  61  72 W6        29.99F

$$

INZ062-063-066-070>080-084-089>092-200800-
SOUTH CENTRAL AND SOUTHEAST INDIANA

CITY           SKY/WX    TMP DP  RH WIND       PRES   REMARKS
BATESVILLE +   MOCLDY    64  64 100 CALM      30.02R FOG
BEDFORD +      FAIR      64  63  94 CALM      30.01R
BLOOMINGTON    FAIR      65  64  97 CALM      30.01F
FRENCH LICK *+ FAIR      66 N/A N/A SW3       30.03F
MADISON *+     MOCLDY    64  63  94 CALM      30.05R
NORTH VERNON + MOCLDY    64  64 100 SW5       30.02R
SEYMOUR +      FAIR      68  66  94 CALM      30.01R

$$




USA.gov is the U.S. government's official web portal to all federal, state and local government web resources and services.